Location: Dillon
(41.1766°N, 107.0923°W)
Time: 13:47:12
(UTC+00:00)

SJ-7 - Pass Details

Date: 12 December 2022
Orbit: 549 x 592 km, 97.7° (Epoch: 05 February)

Event Time Altitude Azimuth Distance (km) Brightness Sun altitude
Rises 12:24:04 0° 21° (NNE) 2,737 8.0 -21.9°
Reaches altitude 10° 12:26:20 10° 30° (NNE) 1,843 7.2 -21.5°
Maximum altitude 12:30:02 37° 98° (E) 885 5.9 -20.8°
Drops below altitude 10° 12:33:45 10° 166° (SSE) 1,849 7.3 -20.1°
Sets 12:36:01 0° 175° (S) 2,748 8.1 -19.7°
